Index of /20260418/WXO-DD/model_rdps/10km/18/055
Name Last modified Size Description
Parent Directory -
20260418T18Z_MSC_RDPS_AbsoluteVorticity_IsbL-0250_RLatLon0.09_PT055H.grib2 2026-04-18 20:55 603K
20260418T18Z_MSC_RDPS_AbsoluteVorticity_IsbL-0500_RLatLon0.09_PT055H.grib2 2026-04-18 20:55 570K
20260418T18Z_MSC_RDPS_AbsoluteVorticity_IsbL-0700_RLatLon0.09_PT055H.grib2 2026-04-18 20:55 628K
20260418T18Z_MSC_RDPS_AbsoluteVorticity_IsbL-0850_RLatLon0.09_PT055H.grib2 2026-04-18 20:55 786K
20260418T18Z_MSC_RDPS_AirTemp_AGL-120m_RLatLon0.09_PT055H.grib2 2026-04-18 20:55 372K
20260418T18Z_MSC_RDPS_AirTemp_AGL-2m_RLatLon0.09_PT055H.grib2 2026-04-18 20:55 618K
20260418T18Z_MSC_RDPS_AirTemp_AGL-40m_RLatLon0.09_PT055H.grib2 2026-04-18 20:55 385K
20260418T18Z_MSC_RDPS_AirTemp_AGL-80m_RLatLon0.09_PT055H.grib2 2026-04-18 20:55 376K
20260418T18Z_MSC_RDPS_AirTemp_IsbL-0001_RLatLon0.09_PT055H.grib2 2026-04-18 20:55 301K
20260418T18Z_MSC_RDPS_AirTemp_IsbL-0005_RLatLon0.09_PT055H.grib2 2026-04-18 20:55 334K
20260418T18Z_MSC_RDPS_AirTemp_IsbL-0010_RLatLon0.09_PT055H.grib2 2026-04-18 20:55 308K
20260418T18Z_MSC_RDPS_AirTemp_IsbL-0020_RLatLon0.09_PT055H.grib2 2026-04-18 20:55 328K
20260418T18Z_MSC_RDPS_AirTemp_IsbL-0030_RLatLon0.09_PT055H.grib2 2026-04-18 20:55 349K
20260418T18Z_MSC_RDPS_AirTemp_IsbL-0050_RLatLon0.09_PT055H.grib2 2026-04-18 20:55 331K
20260418T18Z_MSC_RDPS_AirTemp_IsbL-0100_RLatLon0.09_PT055H.grib2 2026-04-18 20:55 432K
20260418T18Z_MSC_RDPS_AirTemp_IsbL-0150_RLatLon0.09_PT055H.grib2 2026-04-18 20:55 425K
20260418T18Z_MSC_RDPS_AirTemp_IsbL-0175_RLatLon0.09_PT055H.grib2 2026-04-18 20:55 425K
20260418T18Z_MSC_RDPS_AirTemp_IsbL-0200_RLatLon0.09_PT055H.grib2 2026-04-18 20:55 428K
20260418T18Z_MSC_RDPS_AirTemp_IsbL-0225_RLatLon0.09_PT055H.grib2 2026-04-18 20:55 421K
20260418T18Z_MSC_RDPS_AirTemp_IsbL-0250_RLatLon0.09_PT055H.grib2 2026-04-18 20:55 422K
20260418T18Z_MSC_RDPS_AirTemp_IsbL-0275_RLatLon0.09_PT055H.grib2 2026-04-18 20:55 399K
20260418T18Z_MSC_RDPS_AirTemp_IsbL-0300_RLatLon0.09_PT055H.grib2 2026-04-18 20:55 403K
20260418T18Z_MSC_RDPS_AirTemp_IsbL-0350_RLatLon0.09_PT055H.grib2 2026-04-18 20:55 420K
20260418T18Z_MSC_RDPS_AirTemp_IsbL-0400_RLatLon0.09_PT055H.grib2 2026-04-18 20:55 423K
20260418T18Z_MSC_RDPS_AirTemp_IsbL-0450_RLatLon0.09_PT055H.grib2 2026-04-18 20:55 400K
20260418T18Z_MSC_RDPS_AirTemp_IsbL-0500_RLatLon0.09_PT055H.grib2 2026-04-18 20:55 416K
20260418T18Z_MSC_RDPS_AirTemp_IsbL-0550_RLatLon0.09_PT055H.grib2 2026-04-18 20:55 437K
20260418T18Z_MSC_RDPS_AirTemp_IsbL-0600_RLatLon0.09_PT055H.grib2 2026-04-18 20:55 458K
20260418T18Z_MSC_RDPS_AirTemp_IsbL-0650_RLatLon0.09_PT055H.grib2 2026-04-18 20:55 471K
20260418T18Z_MSC_RDPS_AirTemp_IsbL-0700_RLatLon0.09_PT055H.grib2 2026-04-18 20:55 494K
20260418T18Z_MSC_RDPS_AirTemp_IsbL-0750_RLatLon0.09_PT055H.grib2 2026-04-18 20:55 531K
20260418T18Z_MSC_RDPS_AirTemp_IsbL-0800_RLatLon0.09_PT055H.grib2 2026-04-18 20:55 460K
20260418T18Z_MSC_RDPS_AirTemp_IsbL-0850_RLatLon0.09_PT055H.grib2 2026-04-18 20:55 498K
20260418T18Z_MSC_RDPS_AirTemp_IsbL-0875_RLatLon0.09_PT055H.grib2 2026-04-18 20:55 509K
20260418T18Z_MSC_RDPS_AirTemp_IsbL-0900_RLatLon0.09_PT055H.grib2 2026-04-18 20:55 513K
20260418T18Z_MSC_RDPS_AirTemp_IsbL-0925_RLatLon0.09_PT055H.grib2 2026-04-18 20:55 512K
20260418T18Z_MSC_RDPS_AirTemp_IsbL-0950_RLatLon0.09_PT055H.grib2 2026-04-18 20:55 515K
20260418T18Z_MSC_RDPS_AirTemp_IsbL-0970_RLatLon0.09_PT055H.grib2 2026-04-18 20:55 515K
20260418T18Z_MSC_RDPS_AirTemp_IsbL-0985_RLatLon0.09_PT055H.grib2 2026-04-18 20:55 508K
20260418T18Z_MSC_RDPS_AirTemp_IsbL-1000_RLatLon0.09_PT055H.grib2 2026-04-18 20:55 498K
20260418T18Z_MSC_RDPS_AirTemp_IsbL-1015_RLatLon0.09_PT055H.grib2 2026-04-18 20:55 495K
20260418T18Z_MSC_RDPS_Albedo_Sfc_RLatLon0.09_PT055H.grib2 2026-04-18 20:55 163K
20260418T18Z_MSC_RDPS_CAPE_Sfc_RLatLon0.09_PT055H.grib2 2026-04-18 20:55 1.6M
20260418T18Z_MSC_RDPS_CIN_Sfc_RLatLon0.09_PT055H.grib2 2026-04-18 20:55 1.1M
20260418T18Z_MSC_RDPS_CloudWater_EAtm_RLatLon0.09_PT055H.grib2 2026-04-18 20:55 218K
20260418T18Z_MSC_RDPS_ConvectivePrecip-Accum_Sfc_RLatLon0.09_PT055H.grib2 2026-04-18 20:55 1.1M
20260418T18Z_MSC_RDPS_DewPointDepression_AGL-2m_RLatLon0.09_PT055H.grib2 2026-04-18 20:55 406K
20260418T18Z_MSC_RDPS_DewPointDepression_IsbL-0001_RLatLon0.09_PT055H.grib2 2026-04-18 20:55 193
20260418T18Z_MSC_RDPS_DewPointDepression_IsbL-0005_RLatLon0.09_PT055H.grib2 2026-04-18 20:55 193
20260418T18Z_MSC_RDPS_DewPointDepression_IsbL-0010_RLatLon0.09_PT055H.grib2 2026-04-18 20:55 193
20260418T18Z_MSC_RDPS_DewPointDepression_IsbL-0020_RLatLon0.09_PT055H.grib2 2026-04-18 20:55 193
20260418T18Z_MSC_RDPS_DewPointDepression_IsbL-0030_RLatLon0.09_PT055H.grib2 2026-04-18 20:55 193
20260418T18Z_MSC_RDPS_DewPointDepression_IsbL-0050_RLatLon0.09_PT055H.grib2 2026-04-18 20:55 98K
20260418T18Z_MSC_RDPS_DewPointDepression_IsbL-0100_RLatLon0.09_PT055H.grib2 2026-04-18 20:55 125K
20260418T18Z_MSC_RDPS_DewPointDepression_IsbL-0150_RLatLon0.09_PT055H.grib2 2026-04-18 20:55 156K
20260418T18Z_MSC_RDPS_DewPointDepression_IsbL-0175_RLatLon0.09_PT055H.grib2 2026-04-18 20:55 189K
20260418T18Z_MSC_RDPS_DewPointDepression_IsbL-0200_RLatLon0.09_PT055H.grib2 2026-04-18 20:55 228K
20260418T18Z_MSC_RDPS_DewPointDepression_IsbL-0225_RLatLon0.09_PT055H.grib2 2026-04-18 20:55 262K
20260418T18Z_MSC_RDPS_DewPointDepression_IsbL-0250_RLatLon0.09_PT055H.grib2 2026-04-18 20:55 295K
20260418T18Z_MSC_RDPS_DewPointDepression_IsbL-0275_RLatLon0.09_PT055H.grib2 2026-04-18 20:55 302K
20260418T18Z_MSC_RDPS_DewPointDepression_IsbL-0300_RLatLon0.09_PT055H.grib2 2026-04-18 20:55 321K
20260418T18Z_MSC_RDPS_DewPointDepression_IsbL-0350_RLatLon0.09_PT055H.grib2 2026-04-18 20:55 333K
20260418T18Z_MSC_RDPS_DewPointDepression_IsbL-0400_RLatLon0.09_PT055H.grib2 2026-04-18 20:55 348K
20260418T18Z_MSC_RDPS_DewPointDepression_IsbL-0450_RLatLon0.09_PT055H.grib2 2026-04-18 20:55 365K
20260418T18Z_MSC_RDPS_DewPointDepression_IsbL-0500_RLatLon0.09_PT055H.grib2 2026-04-18 20:55 381K
20260418T18Z_MSC_RDPS_DewPointDepression_IsbL-0550_RLatLon0.09_PT055H.grib2 2026-04-18 20:55 397K
20260418T18Z_MSC_RDPS_DewPointDepression_IsbL-0600_RLatLon0.09_PT055H.grib2 2026-04-18 20:55 407K
20260418T18Z_MSC_RDPS_DewPointDepression_IsbL-0650_RLatLon0.09_PT055H.grib2 2026-04-18 20:55 403K
20260418T18Z_MSC_RDPS_DewPointDepression_IsbL-0700_RLatLon0.09_PT055H.grib2 2026-04-18 20:55 406K
20260418T18Z_MSC_RDPS_DewPointDepression_IsbL-0750_RLatLon0.09_PT055H.grib2 2026-04-18 20:55 428K
20260418T18Z_MSC_RDPS_DewPointDepression_IsbL-0800_RLatLon0.09_PT055H.grib2 2026-04-18 20:55 457K
20260418T18Z_MSC_RDPS_DewPointDepression_IsbL-0850_RLatLon0.09_PT055H.grib2 2026-04-18 20:55 468K
20260418T18Z_MSC_RDPS_DewPointDepression_IsbL-0875_RLatLon0.09_PT055H.grib2 2026-04-18 20:55 464K
20260418T18Z_MSC_RDPS_DewPointDepression_IsbL-0900_RLatLon0.09_PT055H.grib2 2026-04-18 20:55 455K
20260418T18Z_MSC_RDPS_DewPointDepression_IsbL-0925_RLatLon0.09_PT055H.grib2 2026-04-18 20:55 444K
20260418T18Z_MSC_RDPS_DewPointDepression_IsbL-0950_RLatLon0.09_PT055H.grib2 2026-04-18 20:55 437K
20260418T18Z_MSC_RDPS_DewPointDepression_IsbL-0970_RLatLon0.09_PT055H.grib2 2026-04-18 20:55 431K
20260418T18Z_MSC_RDPS_DewPointDepression_IsbL-0985_RLatLon0.09_PT055H.grib2 2026-04-18 20:55 425K
20260418T18Z_MSC_RDPS_DewPointDepression_IsbL-1000_RLatLon0.09_PT055H.grib2 2026-04-18 20:55 422K
20260418T18Z_MSC_RDPS_DewPointDepression_IsbL-1015_RLatLon0.09_PT055H.grib2 2026-04-18 20:55 411K
20260418T18Z_MSC_RDPS_DewPoint_AGL-2m_RLatLon0.09_PT055H.grib2 2026-04-18 20:55 394K
20260418T18Z_MSC_RDPS_DownwardLongwaveRadiationFlux-Accum_Sfc_RLatLon0.09_PT055H.grib2 2026-04-18 20:55 376K
20260418T18Z_MSC_RDPS_DownwardShortwaveRadiationFlux-Accum_NTAtm_RLatLon0.09_PT055H.grib2 2026-04-18 20:55 107K
20260418T18Z_MSC_RDPS_DownwardShortwaveRadiationFlux-Accum_Sfc_RLatLon0.09_PT055H.grib2 2026-04-18 20:55 573K
20260418T18Z_MSC_RDPS_FreezingRain-Accum1h_Sfc_RLatLon0.09_PT055H.grib2 2026-04-18 20:55 19K
20260418T18Z_MSC_RDPS_FreezingRain-Accum_Sfc_RLatLon0.09_PT055H.grib2 2026-04-18 20:55 117K
20260418T18Z_MSC_RDPS_GeopotentialHeight_IsbL-0001_RLatLon0.09_PT055H.grib2 2026-04-18 20:55 270K
20260418T18Z_MSC_RDPS_GeopotentialHeight_IsbL-0005_RLatLon0.09_PT055H.grib2 2026-04-18 20:55 237K
20260418T18Z_MSC_RDPS_GeopotentialHeight_IsbL-0010_RLatLon0.09_PT055H.grib2 2026-04-18 20:55 312K
20260418T18Z_MSC_RDPS_GeopotentialHeight_IsbL-0020_RLatLon0.09_PT055H.grib2 2026-04-18 20:55 308K
20260418T18Z_MSC_RDPS_GeopotentialHeight_IsbL-0030_RLatLon0.09_PT055H.grib2 2026-04-18 20:55 310K
20260418T18Z_MSC_RDPS_GeopotentialHeight_IsbL-0050_RLatLon0.09_PT055H.grib2 2026-04-18 20:55 345K
20260418T18Z_MSC_RDPS_GeopotentialHeight_IsbL-0100_RLatLon0.09_PT055H.grib2 2026-04-18 20:55 292K
20260418T18Z_MSC_RDPS_GeopotentialHeight_IsbL-0150_RLatLon0.09_PT055H.grib2 2026-04-18 20:55 230K
20260418T18Z_MSC_RDPS_GeopotentialHeight_IsbL-0175_RLatLon0.09_PT055H.grib2 2026-04-18 20:55 264K
20260418T18Z_MSC_RDPS_GeopotentialHeight_IsbL-0200_RLatLon0.09_PT055H.grib2 2026-04-18 20:55 265K
20260418T18Z_MSC_RDPS_GeopotentialHeight_IsbL-0225_RLatLon0.09_PT055H.grib2 2026-04-18 20:55 267K
20260418T18Z_MSC_RDPS_GeopotentialHeight_IsbL-0250_RLatLon0.09_PT055H.grib2 2026-04-18 20:55 267K
20260418T18Z_MSC_RDPS_GeopotentialHeight_IsbL-0275_RLatLon0.09_PT055H.grib2 2026-04-18 20:55 266K
20260418T18Z_MSC_RDPS_GeopotentialHeight_IsbL-0300_RLatLon0.09_PT055H.grib2 2026-04-18 20:55 266K
20260418T18Z_MSC_RDPS_GeopotentialHeight_IsbL-0350_RLatLon0.09_PT055H.grib2 2026-04-18 20:55 232K
20260418T18Z_MSC_RDPS_GeopotentialHeight_IsbL-0400_RLatLon0.09_PT055H.grib2 2026-04-18 20:55 229K
20260418T18Z_MSC_RDPS_GeopotentialHeight_IsbL-0450_RLatLon0.09_PT055H.grib2 2026-04-18 20:55 299K
20260418T18Z_MSC_RDPS_GeopotentialHeight_IsbL-0500_RLatLon0.09_PT055H.grib2 2026-04-18 20:55 295K
20260418T18Z_MSC_RDPS_GeopotentialHeight_IsbL-0550_RLatLon0.09_PT055H.grib2 2026-04-18 20:55 293K
20260418T18Z_MSC_RDPS_GeopotentialHeight_IsbL-0600_RLatLon0.09_PT055H.grib2 2026-04-18 20:55 289K
20260418T18Z_MSC_RDPS_GeopotentialHeight_IsbL-0650_RLatLon0.09_PT055H.grib2 2026-04-18 20:55 262K
20260418T18Z_MSC_RDPS_GeopotentialHeight_IsbL-0700_RLatLon0.09_PT055H.grib2 2026-04-18 20:55 260K
20260418T18Z_MSC_RDPS_GeopotentialHeight_IsbL-0750_RLatLon0.09_PT055H.grib2 2026-04-18 20:55 261K
20260418T18Z_MSC_RDPS_GeopotentialHeight_IsbL-0800_RLatLon0.09_PT055H.grib2 2026-04-18 20:55 348K
20260418T18Z_MSC_RDPS_GeopotentialHeight_IsbL-0850_RLatLon0.09_PT055H.grib2 2026-04-18 20:55 353K
20260418T18Z_MSC_RDPS_GeopotentialHeight_IsbL-0875_RLatLon0.09_PT055H.grib2 2026-04-18 20:55 354K
20260418T18Z_MSC_RDPS_GeopotentialHeight_IsbL-0900_RLatLon0.09_PT055H.grib2 2026-04-18 20:55 360K
20260418T18Z_MSC_RDPS_GeopotentialHeight_IsbL-0925_RLatLon0.09_PT055H.grib2 2026-04-18 20:55 363K
20260418T18Z_MSC_RDPS_GeopotentialHeight_IsbL-0950_RLatLon0.09_PT055H.grib2 2026-04-18 20:55 364K
20260418T18Z_MSC_RDPS_GeopotentialHeight_IsbL-0970_RLatLon0.09_PT055H.grib2 2026-04-18 20:55 369K
20260418T18Z_MSC_RDPS_GeopotentialHeight_IsbL-0985_RLatLon0.09_PT055H.grib2 2026-04-18 20:55 378K
20260418T18Z_MSC_RDPS_GeopotentialHeight_IsbL-1000_RLatLon0.09_PT055H.grib2 2026-04-18 20:55 390K
20260418T18Z_MSC_RDPS_GeopotentialHeight_IsbL-1015_RLatLon0.09_PT055H.grib2 2026-04-18 20:55 405K
20260418T18Z_MSC_RDPS_Humidex_Sfc_RLatLon0.09_PT055H.grib2 2026-04-18 20:55 2.4M
20260418T18Z_MSC_RDPS_IcePellets-Accum1h_Sfc_RLatLon0.09_PT055H.grib2 2026-04-18 20:55 4.8K
20260418T18Z_MSC_RDPS_IcePellets-Accum_Sfc_RLatLon0.09_PT055H.grib2 2026-04-18 20:55 41K
20260418T18Z_MSC_RDPS_KIndex_Sfc_RLatLon0.09_PT055H.grib2 2026-04-18 20:55 2.5M
20260418T18Z_MSC_RDPS_LatentHeatNetFlux_Sfc_RLatLon0.09_PT055H.grib2 2026-04-18 20:55 332K
20260418T18Z_MSC_RDPS_LiftedIndex-MU-VT_IsbL-0500_RLatLon0.09_PT055H.grib2 2026-04-18 20:55 2.4M
20260418T18Z_MSC_RDPS_NetLongwaveRadiationFlux-Accum_Sfc_RLatLon0.09_PT055H.grib2 2026-04-18 20:55 563K
20260418T18Z_MSC_RDPS_NetShortwaveRadiationFlux-Accum_Sfc_RLatLon0.09_PT055H.grib2 2026-04-18 20:55 586K
20260418T18Z_MSC_RDPS_PlanetaryBoundaryLayerHeight_Sfc_RLatLon0.09_PT055H.grib2 2026-04-18 20:55 1.0M
20260418T18Z_MSC_RDPS_Precip-Accum1h_Sfc_RLatLon0.09_PT055H.grib2 2026-04-18 20:55 1.3M
20260418T18Z_MSC_RDPS_Precip-Accum_Sfc_RLatLon0.09_PT055H.grib2 2026-04-18 20:55 1.9M
20260418T18Z_MSC_RDPS_PrecipRate_Sfc_RLatLon0.09_PT055H.grib2 2026-04-18 20:55 244K
20260418T18Z_MSC_RDPS_PrecipType-Instant_Sfc_RLatLon0.09_PT055H.grib2 2026-04-18 20:55 586K
20260418T18Z_MSC_RDPS_Pressure-Trend3h_Sfc_RLatLon0.09_PT055H.grib2 2026-04-18 20:55 1.2M
20260418T18Z_MSC_RDPS_Pressure_MSL_RLatLon0.09_PT055H.grib2 2026-04-18 20:55 294K
20260418T18Z_MSC_RDPS_Pressure_PVU-1.5_RLatLon0.09_PT055H.grib2 2026-04-18 20:55 2.3M
20260418T18Z_MSC_RDPS_Pressure_PVU-1_RLatLon0.09_PT055H.grib2 2026-04-18 20:55 2.4M
20260418T18Z_MSC_RDPS_Pressure_PVU-2_RLatLon0.09_PT055H.grib2 2026-04-18 20:55 2.3M
20260418T18Z_MSC_RDPS_Pressure_Sfc_RLatLon0.09_PT055H.grib2 2026-04-18 20:55 501K
20260418T18Z_MSC_RDPS_RadiativeTemp_Sfc_RLatLon0.09_PT055H.grib2 2026-04-18 20:55 308K
20260418T18Z_MSC_RDPS_Rain-Accum1h_Sfc_RLatLon0.09_PT055H.grib2 2026-04-18 20:55 681K
20260418T18Z_MSC_RDPS_Rain-Accum_Sfc_RLatLon0.09_PT055H.grib2 2026-04-18 20:55 1.6M
20260418T18Z_MSC_RDPS_RelativeHumidity_AGL-2m_RLatLon0.09_PT055H.grib2 2026-04-18 20:55 1.0M
20260418T18Z_MSC_RDPS_RelativeHumidity_IsbL-0010_RLatLon0.09_PT055H.grib2 2026-04-18 20:55 552K
20260418T18Z_MSC_RDPS_RelativeHumidity_IsbL-0020_RLatLon0.09_PT055H.grib2 2026-04-18 20:55 571K
20260418T18Z_MSC_RDPS_RelativeHumidity_IsbL-0030_RLatLon0.09_PT055H.grib2 2026-04-18 20:55 547K
20260418T18Z_MSC_RDPS_RelativeHumidity_IsbL-0050_RLatLon0.09_PT055H.grib2 2026-04-18 20:55 387K
20260418T18Z_MSC_RDPS_RelativeHumidity_IsbL-0100_RLatLon0.09_PT055H.grib2 2026-04-18 20:55 270K
20260418T18Z_MSC_RDPS_RelativeHumidity_IsbL-0150_RLatLon0.09_PT055H.grib2 2026-04-18 20:55 378K
20260418T18Z_MSC_RDPS_RelativeHumidity_IsbL-0175_RLatLon0.09_PT055H.grib2 2026-04-18 20:55 472K
20260418T18Z_MSC_RDPS_RelativeHumidity_IsbL-0200_RLatLon0.09_PT055H.grib2 2026-04-18 20:55 562K
20260418T18Z_MSC_RDPS_RelativeHumidity_IsbL-0225_RLatLon0.09_PT055H.grib2 2026-04-18 20:55 637K
20260418T18Z_MSC_RDPS_RelativeHumidity_IsbL-0250_RLatLon0.09_PT055H.grib2 2026-04-18 20:55 695K
20260418T18Z_MSC_RDPS_RelativeHumidity_IsbL-0275_RLatLon0.09_PT055H.grib2 2026-04-18 20:55 708K
20260418T18Z_MSC_RDPS_RelativeHumidity_IsbL-0300_RLatLon0.09_PT055H.grib2 2026-04-18 20:55 742K
20260418T18Z_MSC_RDPS_RelativeHumidity_IsbL-0350_RLatLon0.09_PT055H.grib2 2026-04-18 20:55 764K
20260418T18Z_MSC_RDPS_RelativeHumidity_IsbL-0400_RLatLon0.09_PT055H.grib2 2026-04-18 20:55 787K
20260418T18Z_MSC_RDPS_RelativeHumidity_IsbL-0450_RLatLon0.09_PT055H.grib2 2026-04-18 20:55 807K
20260418T18Z_MSC_RDPS_RelativeHumidity_IsbL-0500_RLatLon0.09_PT055H.grib2 2026-04-18 20:55 824K
20260418T18Z_MSC_RDPS_RelativeHumidity_IsbL-0550_RLatLon0.09_PT055H.grib2 2026-04-18 20:55 848K
20260418T18Z_MSC_RDPS_RelativeHumidity_IsbL-0600_RLatLon0.09_PT055H.grib2 2026-04-18 20:55 879K
20260418T18Z_MSC_RDPS_RelativeHumidity_IsbL-0650_RLatLon0.09_PT055H.grib2 2026-04-18 20:55 872K
20260418T18Z_MSC_RDPS_RelativeHumidity_IsbL-0700_RLatLon0.09_PT055H.grib2 2026-04-18 20:55 887K
20260418T18Z_MSC_RDPS_RelativeHumidity_IsbL-0750_RLatLon0.09_PT055H.grib2 2026-04-18 20:55 936K
20260418T18Z_MSC_RDPS_RelativeHumidity_IsbL-0800_RLatLon0.09_PT055H.grib2 2026-04-18 20:55 1.0M
20260418T18Z_MSC_RDPS_RelativeHumidity_IsbL-0850_RLatLon0.09_PT055H.grib2 2026-04-18 20:55 1.0M
20260418T18Z_MSC_RDPS_RelativeHumidity_IsbL-0875_RLatLon0.09_PT055H.grib2 2026-04-18 20:55 1.0M
20260418T18Z_MSC_RDPS_RelativeHumidity_IsbL-0900_RLatLon0.09_PT055H.grib2 2026-04-18 20:55 1.0M
20260418T18Z_MSC_RDPS_RelativeHumidity_IsbL-0925_RLatLon0.09_PT055H.grib2 2026-04-18 20:55 1.0M
20260418T18Z_MSC_RDPS_RelativeHumidity_IsbL-0950_RLatLon0.09_PT055H.grib2 2026-04-18 20:55 1.0M
20260418T18Z_MSC_RDPS_RelativeHumidity_IsbL-0970_RLatLon0.09_PT055H.grib2 2026-04-18 20:55 1.0M
20260418T18Z_MSC_RDPS_RelativeHumidity_IsbL-0985_RLatLon0.09_PT055H.grib2 2026-04-18 20:55 1.0M
20260418T18Z_MSC_RDPS_RelativeHumidity_IsbL-1000_RLatLon0.09_PT055H.grib2 2026-04-18 20:55 1.0M
20260418T18Z_MSC_RDPS_RelativeHumidity_IsbL-1015_RLatLon0.09_PT055H.grib2 2026-04-18 20:55 1.0M
20260418T18Z_MSC_RDPS_Runoff-Accum_Sfc_RLatLon0.09_PT055H.grib2 2026-04-18 20:55 63K
20260418T18Z_MSC_RDPS_SWEATIndex_Sfc_RLatLon0.09_PT055H.grib2 2026-04-18 20:55 2.4M
20260418T18Z_MSC_RDPS_SeeingIndex_EAtm_RLatLon0.09_PT055H.grib2 2026-04-18 20:55 1.0M
20260418T18Z_MSC_RDPS_SensibleHeatNetFlux_Sfc_RLatLon0.09_PT055H.grib2 2026-04-18 20:55 306K
20260418T18Z_MSC_RDPS_ShowalterIndex_IsbL-0500_RLatLon0.09_PT055H.grib2 2026-04-18 20:55 2.6M
20260418T18Z_MSC_RDPS_SkyTransparencyIndex_EAtm_RLatLon0.09_PT055H.grib2 2026-04-18 20:55 727K
20260418T18Z_MSC_RDPS_Snow-Accum1h_Sfc_RLatLon0.09_PT055H.grib2 2026-04-18 20:55 436K
20260418T18Z_MSC_RDPS_Snow-Accum_Sfc_RLatLon0.09_PT055H.grib2 2026-04-18 20:55 717K
20260418T18Z_MSC_RDPS_SnowDensity_Sfc_RLatLon0.09_PT055H.grib2 2026-04-18 20:55 179K
20260418T18Z_MSC_RDPS_SnowDepth_Sfc_RLatLon0.09_PT055H.grib2 2026-04-18 20:55 714K
20260418T18Z_MSC_RDPS_SoilTemp_DBS-0to10cm_RLatLon0.09_PT055H.grib2 2026-04-18 20:55 243K
20260418T18Z_MSC_RDPS_SoilTemp_Sfc_RLatLon0.09_PT055H.grib2 2026-04-18 20:55 286K
20260418T18Z_MSC_RDPS_SoilVolumetricIceContent_Sfc_RLatLon0.09_PT055H.grib2 2026-04-18 20:55 172K
20260418T18Z_MSC_RDPS_SoilVolumetricWaterContent_DBS-0to10cm_RLatLon0.09_PT055H.grib2 2026-04-18 20:55 250K
20260418T18Z_MSC_RDPS_SoilVolumetricWaterContent_DBS-0to1cm_RLatLon0.09_PT055H.grib2 2026-04-18 20:55 340K
20260418T18Z_MSC_RDPS_SpecificHumidity_AGL-120m_RLatLon0.09_PT055H.grib2 2026-04-18 20:55 469K
20260418T18Z_MSC_RDPS_SpecificHumidity_AGL-2m_RLatLon0.09_PT055H.grib2 2026-04-18 20:55 637K
20260418T18Z_MSC_RDPS_SpecificHumidity_AGL-40m_RLatLon0.09_PT055H.grib2 2026-04-18 20:55 478K
20260418T18Z_MSC_RDPS_SpecificHumidity_AGL-80m_RLatLon0.09_PT055H.grib2 2026-04-18 20:55 471K
20260418T18Z_MSC_RDPS_SpecificHumidity_IsbL-0001_RLatLon0.09_PT055H.grib2 2026-04-18 20:55 319K
20260418T18Z_MSC_RDPS_SpecificHumidity_IsbL-0005_RLatLon0.09_PT055H.grib2 2026-04-18 20:55 440K
20260418T18Z_MSC_RDPS_SpecificHumidity_IsbL-0010_RLatLon0.09_PT055H.grib2 2026-04-18 20:55 371K
20260418T18Z_MSC_RDPS_SpecificHumidity_IsbL-0020_RLatLon0.09_PT055H.grib2 2026-04-18 20:55 368K
20260418T18Z_MSC_RDPS_SpecificHumidity_IsbL-0030_RLatLon0.09_PT055H.grib2 2026-04-18 20:55 431K
20260418T18Z_MSC_RDPS_SpecificHumidity_IsbL-0050_RLatLon0.09_PT055H.grib2 2026-04-18 20:55 465K
20260418T18Z_MSC_RDPS_SpecificHumidity_IsbL-0100_RLatLon0.09_PT055H.grib2 2026-04-18 20:55 409K
20260418T18Z_MSC_RDPS_SpecificHumidity_IsbL-0150_RLatLon0.09_PT055H.grib2 2026-04-18 20:55 463K
20260418T18Z_MSC_RDPS_SpecificHumidity_IsbL-0175_RLatLon0.09_PT055H.grib2 2026-04-18 20:55 428K
20260418T18Z_MSC_RDPS_SpecificHumidity_IsbL-0200_RLatLon0.09_PT055H.grib2 2026-04-18 20:55 449K
20260418T18Z_MSC_RDPS_SpecificHumidity_IsbL-0225_RLatLon0.09_PT055H.grib2 2026-04-18 20:55 563K
20260418T18Z_MSC_RDPS_SpecificHumidity_IsbL-0250_RLatLon0.09_PT055H.grib2 2026-04-18 20:55 556K
20260418T18Z_MSC_RDPS_SpecificHumidity_IsbL-0275_RLatLon0.09_PT055H.grib2 2026-04-18 20:55 467K
20260418T18Z_MSC_RDPS_SpecificHumidity_IsbL-0300_RLatLon0.09_PT055H.grib2 2026-04-18 20:55 535K
20260418T18Z_MSC_RDPS_SpecificHumidity_IsbL-0350_RLatLon0.09_PT055H.grib2 2026-04-18 20:55 531K
20260418T18Z_MSC_RDPS_SpecificHumidity_IsbL-0400_RLatLon0.09_PT055H.grib2 2026-04-18 20:55 519K
20260418T18Z_MSC_RDPS_SpecificHumidity_IsbL-0450_RLatLon0.09_PT055H.grib2 2026-04-18 20:55 583K
20260418T18Z_MSC_RDPS_SpecificHumidity_IsbL-0500_RLatLon0.09_PT055H.grib2 2026-04-18 20:55 527K
20260418T18Z_MSC_RDPS_SpecificHumidity_IsbL-0550_RLatLon0.09_PT055H.grib2 2026-04-18 20:55 588K
20260418T18Z_MSC_RDPS_SpecificHumidity_IsbL-0600_RLatLon0.09_PT055H.grib2 2026-04-18 20:55 659K
20260418T18Z_MSC_RDPS_SpecificHumidity_IsbL-0650_RLatLon0.09_PT055H.grib2 2026-04-18 20:55 565K
20260418T18Z_MSC_RDPS_SpecificHumidity_IsbL-0700_RLatLon0.09_PT055H.grib2 2026-04-18 20:55 599K
20260418T18Z_MSC_RDPS_SpecificHumidity_IsbL-0750_RLatLon0.09_PT055H.grib2 2026-04-18 20:55 651K
20260418T18Z_MSC_RDPS_SpecificHumidity_IsbL-0800_RLatLon0.09_PT055H.grib2 2026-04-18 20:55 724K
20260418T18Z_MSC_RDPS_SpecificHumidity_IsbL-0850_RLatLon0.09_PT055H.grib2 2026-04-18 20:55 791K
20260418T18Z_MSC_RDPS_SpecificHumidity_IsbL-0875_RLatLon0.09_PT055H.grib2 2026-04-18 20:55 809K
20260418T18Z_MSC_RDPS_SpecificHumidity_IsbL-0900_RLatLon0.09_PT055H.grib2 2026-04-18 20:55 818K
20260418T18Z_MSC_RDPS_SpecificHumidity_IsbL-0925_RLatLon0.09_PT055H.grib2 2026-04-18 20:55 820K
20260418T18Z_MSC_RDPS_SpecificHumidity_IsbL-0950_RLatLon0.09_PT055H.grib2 2026-04-18 20:55 820K
20260418T18Z_MSC_RDPS_SpecificHumidity_IsbL-0970_RLatLon0.09_PT055H.grib2 2026-04-18 20:55 673K
20260418T18Z_MSC_RDPS_SpecificHumidity_IsbL-0985_RLatLon0.09_PT055H.grib2 2026-04-18 20:55 664K
20260418T18Z_MSC_RDPS_SpecificHumidity_IsbL-1000_RLatLon0.09_PT055H.grib2 2026-04-18 20:55 658K
20260418T18Z_MSC_RDPS_SpecificHumidity_IsbL-1015_RLatLon0.09_PT055H.grib2 2026-04-18 20:55 650K
20260418T18Z_MSC_RDPS_SpecificHumidity_Sfc_RLatLon0.09_PT055H.grib2 2026-04-18 20:55 303K
20260418T18Z_MSC_RDPS_StormRelativeHelicity_EtaL-10000_RLatLon0.09_PT055H.grib2 2026-04-18 20:55 1.2M
20260418T18Z_MSC_RDPS_StormSeverityIndex_EtaL-10000_RLatLon0.09_PT055H.grib2 2026-04-18 20:55 1.2M
20260418T18Z_MSC_RDPS_Thickness_IsbL-0850to0700_RLatLon0.09_PT055H.grib2 2026-04-18 20:55 179K
20260418T18Z_MSC_RDPS_Thickness_IsbL-1000to0500_RLatLon0.09_PT055H.grib2 2026-04-18 20:55 201K
20260418T18Z_MSC_RDPS_Thickness_IsbL-1000to0850_RLatLon0.09_PT055H.grib2 2026-04-18 20:55 185K
20260418T18Z_MSC_RDPS_TotalCloudCover_Sfc_RLatLon0.09_PT055H.grib2 2026-04-18 20:55 648K
20260418T18Z_MSC_RDPS_TotalTotalsIndex_Sfc_RLatLon0.09_PT055H.grib2 2026-04-18 20:55 2.4M
20260418T18Z_MSC_RDPS_UVIndex-ClearSky_Sfc_RLatLon0.09_PT055H.grib2 2026-04-18 20:55 136K
20260418T18Z_MSC_RDPS_UVIndex_Sfc_RLatLon0.09_PT055H.grib2 2026-04-18 20:55 296K
20260418T18Z_MSC_RDPS_UpwardLongwaveRadiationFlux_NTAtm_RLatLon0.09_PT055H.grib2 2026-04-18 20:55 485K
20260418T18Z_MSC_RDPS_UpwardShortwaveRadiationFlux_NTAtm_RLatLon0.09_PT055H.grib2 2026-04-18 20:55 275K
20260418T18Z_MSC_RDPS_VerticalVelocity_IsbL-0250_RLatLon0.09_PT055H.grib2 2026-04-18 20:55 587K
20260418T18Z_MSC_RDPS_VerticalVelocity_IsbL-0500_RLatLon0.09_PT055H.grib2 2026-04-18 20:55 554K
20260418T18Z_MSC_RDPS_VerticalVelocity_IsbL-0700_RLatLon0.09_PT055H.grib2 2026-04-18 20:55 637K
20260418T18Z_MSC_RDPS_VerticalVelocity_IsbL-0850_RLatLon0.09_PT055H.grib2 2026-04-18 20:55 700K
20260418T18Z_MSC_RDPS_VerticalWindShear_EtaL-6500_RLatLon0.09_PT055H.grib2 2026-04-18 20:55 1.2M
20260418T18Z_MSC_RDPS_WindChill_Sfc_RLatLon0.09_PT055H.grib2 2026-04-18 20:55 1.2M
20260418T18Z_MSC_RDPS_WindDir_AGL-10m_RLatLon0.09_PT055H.grib2 2026-04-18 20:55 949K
20260418T18Z_MSC_RDPS_WindDir_AGL-120m_RLatLon0.09_PT055H.grib2 2026-04-18 20:55 595K
20260418T18Z_MSC_RDPS_WindDir_AGL-40m_RLatLon0.09_PT055H.grib2 2026-04-18 20:55 619K
20260418T18Z_MSC_RDPS_WindDir_AGL-80m_RLatLon0.09_PT055H.grib2 2026-04-18 20:55 605K
20260418T18Z_MSC_RDPS_WindDir_IsbL-0001_RLatLon0.09_PT055H.grib2 2026-04-18 20:55 264K
20260418T18Z_MSC_RDPS_WindDir_IsbL-0005_RLatLon0.09_PT055H.grib2 2026-04-18 20:55 355K
20260418T18Z_MSC_RDPS_WindDir_IsbL-0010_RLatLon0.09_PT055H.grib2 2026-04-18 20:55 383K
20260418T18Z_MSC_RDPS_WindDir_IsbL-0020_RLatLon0.09_PT055H.grib2 2026-04-18 20:55 405K
20260418T18Z_MSC_RDPS_WindDir_IsbL-0030_RLatLon0.09_PT055H.grib2 2026-04-18 20:55 429K
20260418T18Z_MSC_RDPS_WindDir_IsbL-0050_RLatLon0.09_PT055H.grib2 2026-04-18 20:55 423K
20260418T18Z_MSC_RDPS_WindDir_IsbL-0100_RLatLon0.09_PT055H.grib2 2026-04-18 20:55 417K
20260418T18Z_MSC_RDPS_WindDir_IsbL-0150_RLatLon0.09_PT055H.grib2 2026-04-18 20:55 417K
20260418T18Z_MSC_RDPS_WindDir_IsbL-0175_RLatLon0.09_PT055H.grib2 2026-04-18 20:55 437K
20260418T18Z_MSC_RDPS_WindDir_IsbL-0200_RLatLon0.09_PT055H.grib2 2026-04-18 20:55 448K
20260418T18Z_MSC_RDPS_WindDir_IsbL-0225_RLatLon0.09_PT055H.grib2 2026-04-18 20:55 449K
20260418T18Z_MSC_RDPS_WindDir_IsbL-0250_RLatLon0.09_PT055H.grib2 2026-04-18 20:55 442K
20260418T18Z_MSC_RDPS_WindDir_IsbL-0275_RLatLon0.09_PT055H.grib2 2026-04-18 20:55 458K
20260418T18Z_MSC_RDPS_WindDir_IsbL-0300_RLatLon0.09_PT055H.grib2 2026-04-18 20:55 453K
20260418T18Z_MSC_RDPS_WindDir_IsbL-0350_RLatLon0.09_PT055H.grib2 2026-04-18 20:55 470K
20260418T18Z_MSC_RDPS_WindDir_IsbL-0400_RLatLon0.09_PT055H.grib2 2026-04-18 20:55 490K
20260418T18Z_MSC_RDPS_WindDir_IsbL-0450_RLatLon0.09_PT055H.grib2 2026-04-18 20:55 511K
20260418T18Z_MSC_RDPS_WindDir_IsbL-0500_RLatLon0.09_PT055H.grib2 2026-04-18 20:55 536K
20260418T18Z_MSC_RDPS_WindDir_IsbL-0550_RLatLon0.09_PT055H.grib2 2026-04-18 20:55 559K
20260418T18Z_MSC_RDPS_WindDir_IsbL-0600_RLatLon0.09_PT055H.grib2 2026-04-18 20:55 585K
20260418T18Z_MSC_RDPS_WindDir_IsbL-0650_RLatLon0.09_PT055H.grib2 2026-04-18 20:55 619K
20260418T18Z_MSC_RDPS_WindDir_IsbL-0700_RLatLon0.09_PT055H.grib2 2026-04-18 20:55 657K
20260418T18Z_MSC_RDPS_WindDir_IsbL-0750_RLatLon0.09_PT055H.grib2 2026-04-18 20:55 705K
20260418T18Z_MSC_RDPS_WindDir_IsbL-0800_RLatLon0.09_PT055H.grib2 2026-04-18 20:55 767K
20260418T18Z_MSC_RDPS_WindDir_IsbL-0850_RLatLon0.09_PT055H.grib2 2026-04-18 20:55 832K
20260418T18Z_MSC_RDPS_WindDir_IsbL-0875_RLatLon0.09_PT055H.grib2 2026-04-18 20:55 863K
20260418T18Z_MSC_RDPS_WindDir_IsbL-0900_RLatLon0.09_PT055H.grib2 2026-04-18 20:55 882K
20260418T18Z_MSC_RDPS_WindDir_IsbL-0925_RLatLon0.09_PT055H.grib2 2026-04-18 20:55 889K
20260418T18Z_MSC_RDPS_WindDir_IsbL-0950_RLatLon0.09_PT055H.grib2 2026-04-18 20:55 885K
20260418T18Z_MSC_RDPS_WindDir_IsbL-0970_RLatLon0.09_PT055H.grib2 2026-04-18 20:55 895K
20260418T18Z_MSC_RDPS_WindDir_IsbL-0985_RLatLon0.09_PT055H.grib2 2026-04-18 20:55 908K
20260418T18Z_MSC_RDPS_WindDir_IsbL-1000_RLatLon0.09_PT055H.grib2 2026-04-18 20:55 926K
20260418T18Z_MSC_RDPS_WindDir_IsbL-1015_RLatLon0.09_PT055H.grib2 2026-04-18 20:55 942K
20260418T18Z_MSC_RDPS_WindGust-Max_AGL-10m_RLatLon0.09_PT055H.grib2 2026-04-18 20:55 960K
20260418T18Z_MSC_RDPS_WindGust-Min_AGL-10m_RLatLon0.09_PT055H.grib2 2026-04-18 20:55 1.0M
20260418T18Z_MSC_RDPS_WindGust_AGL-10m_RLatLon0.09_PT055H.grib2 2026-04-18 20:55 1.0M
20260418T18Z_MSC_RDPS_WindSpeed_AGL-10m_RLatLon0.09_PT055H.grib2 2026-04-18 20:55 840K
20260418T18Z_MSC_RDPS_WindSpeed_AGL-120m_RLatLon0.09_PT055H.grib2 2026-04-18 20:55 535K
20260418T18Z_MSC_RDPS_WindSpeed_AGL-40m_RLatLon0.09_PT055H.grib2 2026-04-18 20:55 541K
20260418T18Z_MSC_RDPS_WindSpeed_AGL-80m_RLatLon0.09_PT055H.grib2 2026-04-18 20:55 537K
20260418T18Z_MSC_RDPS_WindSpeed_IsbL-0001_RLatLon0.09_PT055H.grib2 2026-04-18 20:55 244K
20260418T18Z_MSC_RDPS_WindSpeed_IsbL-0005_RLatLon0.09_PT055H.grib2 2026-04-18 20:55 300K
20260418T18Z_MSC_RDPS_WindSpeed_IsbL-0010_RLatLon0.09_PT055H.grib2 2026-04-18 20:55 312K
20260418T18Z_MSC_RDPS_WindSpeed_IsbL-0020_RLatLon0.09_PT055H.grib2 2026-04-18 20:55 334K
20260418T18Z_MSC_RDPS_WindSpeed_IsbL-0030_RLatLon0.09_PT055H.grib2 2026-04-18 20:55 335K
20260418T18Z_MSC_RDPS_WindSpeed_IsbL-0050_RLatLon0.09_PT055H.grib2 2026-04-18 20:55 457K
20260418T18Z_MSC_RDPS_WindSpeed_IsbL-0100_RLatLon0.09_PT055H.grib2 2026-04-18 20:55 455K
20260418T18Z_MSC_RDPS_WindSpeed_IsbL-0150_RLatLon0.09_PT055H.grib2 2026-04-18 20:55 380K
20260418T18Z_MSC_RDPS_WindSpeed_IsbL-0175_RLatLon0.09_PT055H.grib2 2026-04-18 20:55 410K
20260418T18Z_MSC_RDPS_WindSpeed_IsbL-0200_RLatLon0.09_PT055H.grib2 2026-04-18 20:55 427K
20260418T18Z_MSC_RDPS_WindSpeed_IsbL-0225_RLatLon0.09_PT055H.grib2 2026-04-18 20:55 451K
20260418T18Z_MSC_RDPS_WindSpeed_IsbL-0250_RLatLon0.09_PT055H.grib2 2026-04-18 20:55 450K
20260418T18Z_MSC_RDPS_WindSpeed_IsbL-0275_RLatLon0.09_PT055H.grib2 2026-04-18 20:55 463K
20260418T18Z_MSC_RDPS_WindSpeed_IsbL-0300_RLatLon0.09_PT055H.grib2 2026-04-18 20:55 458K
20260418T18Z_MSC_RDPS_WindSpeed_IsbL-0350_RLatLon0.09_PT055H.grib2 2026-04-18 20:55 467K
20260418T18Z_MSC_RDPS_WindSpeed_IsbL-0400_RLatLon0.09_PT055H.grib2 2026-04-18 20:55 472K
20260418T18Z_MSC_RDPS_WindSpeed_IsbL-0450_RLatLon0.09_PT055H.grib2 2026-04-18 20:55 476K
20260418T18Z_MSC_RDPS_WindSpeed_IsbL-0500_RLatLon0.09_PT055H.grib2 2026-04-18 20:55 465K
20260418T18Z_MSC_RDPS_WindSpeed_IsbL-0550_RLatLon0.09_PT055H.grib2 2026-04-18 20:55 587K
20260418T18Z_MSC_RDPS_WindSpeed_IsbL-0600_RLatLon0.09_PT055H.grib2 2026-04-18 20:55 597K
20260418T18Z_MSC_RDPS_WindSpeed_IsbL-0650_RLatLon0.09_PT055H.grib2 2026-04-18 20:55 620K
20260418T18Z_MSC_RDPS_WindSpeed_IsbL-0700_RLatLon0.09_PT055H.grib2 2026-04-18 20:55 688K
20260418T18Z_MSC_RDPS_WindSpeed_IsbL-0750_RLatLon0.09_PT055H.grib2 2026-04-18 20:55 675K
20260418T18Z_MSC_RDPS_WindSpeed_IsbL-0800_RLatLon0.09_PT055H.grib2 2026-04-18 20:55 723K
20260418T18Z_MSC_RDPS_WindSpeed_IsbL-0850_RLatLon0.09_PT055H.grib2 2026-04-18 20:55 772K
20260418T18Z_MSC_RDPS_WindSpeed_IsbL-0875_RLatLon0.09_PT055H.grib2 2026-04-18 20:55 792K
20260418T18Z_MSC_RDPS_WindSpeed_IsbL-0900_RLatLon0.09_PT055H.grib2 2026-04-18 20:55 806K
20260418T18Z_MSC_RDPS_WindSpeed_IsbL-0925_RLatLon0.09_PT055H.grib2 2026-04-18 20:55 814K
20260418T18Z_MSC_RDPS_WindSpeed_IsbL-0950_RLatLon0.09_PT055H.grib2 2026-04-18 20:55 860K
20260418T18Z_MSC_RDPS_WindSpeed_IsbL-0970_RLatLon0.09_PT055H.grib2 2026-04-18 20:55 860K
20260418T18Z_MSC_RDPS_WindSpeed_IsbL-0985_RLatLon0.09_PT055H.grib2 2026-04-18 20:55 860K
20260418T18Z_MSC_RDPS_WindSpeed_IsbL-1000_RLatLon0.09_PT055H.grib2 2026-04-18 20:55 854K
20260418T18Z_MSC_RDPS_WindSpeed_IsbL-1015_RLatLon0.09_PT055H.grib2 2026-04-18 20:55 845K
20260418T18Z_MSC_RDPS_WindU_AGL-10m_RLatLon0.09_PT055H.grib2 2026-04-18 20:55 433K
20260418T18Z_MSC_RDPS_WindU_AGL-120m_RLatLon0.09_PT055H.grib2 2026-04-18 20:55 418K
20260418T18Z_MSC_RDPS_WindU_AGL-40m_RLatLon0.09_PT055H.grib2 2026-04-18 20:55 538K
20260418T18Z_MSC_RDPS_WindU_AGL-80m_RLatLon0.09_PT055H.grib2 2026-04-18 20:55 536K
20260418T18Z_MSC_RDPS_WindU_IsbL-0001_RLatLon0.09_PT055H.grib2 2026-04-18 20:55 289K
20260418T18Z_MSC_RDPS_WindU_IsbL-0005_RLatLon0.09_PT055H.grib2 2026-04-18 20:55 335K
20260418T18Z_MSC_RDPS_WindU_IsbL-0010_RLatLon0.09_PT055H.grib2 2026-04-18 20:55 346K
20260418T18Z_MSC_RDPS_WindU_IsbL-0020_RLatLon0.09_PT055H.grib2 2026-04-18 20:55 364K
20260418T18Z_MSC_RDPS_WindU_IsbL-0030_RLatLon0.09_PT055H.grib2 2026-04-18 20:55 332K
20260418T18Z_MSC_RDPS_WindU_IsbL-0050_RLatLon0.09_PT055H.grib2 2026-04-18 20:55 365K
20260418T18Z_MSC_RDPS_WindU_IsbL-0100_RLatLon0.09_PT055H.grib2 2026-04-18 20:55 446K
20260418T18Z_MSC_RDPS_WindU_IsbL-0150_RLatLon0.09_PT055H.grib2 2026-04-18 20:55 373K
20260418T18Z_MSC_RDPS_WindU_IsbL-0175_RLatLon0.09_PT055H.grib2 2026-04-18 20:55 423K
20260418T18Z_MSC_RDPS_WindU_IsbL-0200_RLatLon0.09_PT055H.grib2 2026-04-18 20:55 439K
20260418T18Z_MSC_RDPS_WindU_IsbL-0225_RLatLon0.09_PT055H.grib2 2026-04-18 20:55 442K
20260418T18Z_MSC_RDPS_WindU_IsbL-0250_RLatLon0.09_PT055H.grib2 2026-04-18 20:55 342K
20260418T18Z_MSC_RDPS_WindU_IsbL-0275_RLatLon0.09_PT055H.grib2 2026-04-18 20:55 352K
20260418T18Z_MSC_RDPS_WindU_IsbL-0300_RLatLon0.09_PT055H.grib2 2026-04-18 20:55 347K
20260418T18Z_MSC_RDPS_WindU_IsbL-0350_RLatLon0.09_PT055H.grib2 2026-04-18 20:55 353K
20260418T18Z_MSC_RDPS_WindU_IsbL-0400_RLatLon0.09_PT055H.grib2 2026-04-18 20:55 358K
20260418T18Z_MSC_RDPS_WindU_IsbL-0450_RLatLon0.09_PT055H.grib2 2026-04-18 20:55 465K
20260418T18Z_MSC_RDPS_WindU_IsbL-0500_RLatLon0.09_PT055H.grib2 2026-04-18 20:55 470K
20260418T18Z_MSC_RDPS_WindU_IsbL-0550_RLatLon0.09_PT055H.grib2 2026-04-18 20:55 474K
20260418T18Z_MSC_RDPS_WindU_IsbL-0600_RLatLon0.09_PT055H.grib2 2026-04-18 20:55 483K
20260418T18Z_MSC_RDPS_WindU_IsbL-0650_RLatLon0.09_PT055H.grib2 2026-04-18 20:55 502K
20260418T18Z_MSC_RDPS_WindU_IsbL-0700_RLatLon0.09_PT055H.grib2 2026-04-18 20:55 524K
20260418T18Z_MSC_RDPS_WindU_IsbL-0750_RLatLon0.09_PT055H.grib2 2026-04-18 20:55 537K
20260418T18Z_MSC_RDPS_WindU_IsbL-0800_RLatLon0.09_PT055H.grib2 2026-04-18 20:55 581K
20260418T18Z_MSC_RDPS_WindU_IsbL-0850_RLatLon0.09_PT055H.grib2 2026-04-18 20:55 634K
20260418T18Z_MSC_RDPS_WindU_IsbL-0875_RLatLon0.09_PT055H.grib2 2026-04-18 20:55 649K
20260418T18Z_MSC_RDPS_WindU_IsbL-0900_RLatLon0.09_PT055H.grib2 2026-04-18 20:55 660K
20260418T18Z_MSC_RDPS_WindU_IsbL-0925_RLatLon0.09_PT055H.grib2 2026-04-18 20:55 665K
20260418T18Z_MSC_RDPS_WindU_IsbL-0950_RLatLon0.09_PT055H.grib2 2026-04-18 20:55 655K
20260418T18Z_MSC_RDPS_WindU_IsbL-0970_RLatLon0.09_PT055H.grib2 2026-04-18 20:55 654K
20260418T18Z_MSC_RDPS_WindU_IsbL-0985_RLatLon0.09_PT055H.grib2 2026-04-18 20:55 653K
20260418T18Z_MSC_RDPS_WindU_IsbL-1000_RLatLon0.09_PT055H.grib2 2026-04-18 20:55 791K
20260418T18Z_MSC_RDPS_WindU_IsbL-1015_RLatLon0.09_PT055H.grib2 2026-04-18 20:55 783K
20260418T18Z_MSC_RDPS_WindV_AGL-10m_RLatLon0.09_PT055H.grib2 2026-04-18 20:55 430K
20260418T18Z_MSC_RDPS_WindV_AGL-120m_RLatLon0.09_PT055H.grib2 2026-04-18 20:55 414K
20260418T18Z_MSC_RDPS_WindV_AGL-40m_RLatLon0.09_PT055H.grib2 2026-04-18 20:55 534K
20260418T18Z_MSC_RDPS_WindV_AGL-80m_RLatLon0.09_PT055H.grib2 2026-04-18 20:55 532K
20260418T18Z_MSC_RDPS_WindV_IsbL-0001_RLatLon0.09_PT055H.grib2 2026-04-18 20:55 240K
20260418T18Z_MSC_RDPS_WindV_IsbL-0005_RLatLon0.09_PT055H.grib2 2026-04-18 20:55 332K
20260418T18Z_MSC_RDPS_WindV_IsbL-0010_RLatLon0.09_PT055H.grib2 2026-04-18 20:55 346K
20260418T18Z_MSC_RDPS_WindV_IsbL-0020_RLatLon0.09_PT055H.grib2 2026-04-18 20:55 329K
20260418T18Z_MSC_RDPS_WindV_IsbL-0030_RLatLon0.09_PT055H.grib2 2026-04-18 20:55 330K
20260418T18Z_MSC_RDPS_WindV_IsbL-0050_RLatLon0.09_PT055H.grib2 2026-04-18 20:55 368K
20260418T18Z_MSC_RDPS_WindV_IsbL-0100_RLatLon0.09_PT055H.grib2 2026-04-18 20:55 343K
20260418T18Z_MSC_RDPS_WindV_IsbL-0150_RLatLon0.09_PT055H.grib2 2026-04-18 20:55 394K
20260418T18Z_MSC_RDPS_WindV_IsbL-0175_RLatLon0.09_PT055H.grib2 2026-04-18 20:55 325K
20260418T18Z_MSC_RDPS_WindV_IsbL-0200_RLatLon0.09_PT055H.grib2 2026-04-18 20:55 338K
20260418T18Z_MSC_RDPS_WindV_IsbL-0225_RLatLon0.09_PT055H.grib2 2026-04-18 20:55 341K
20260418T18Z_MSC_RDPS_WindV_IsbL-0250_RLatLon0.09_PT055H.grib2 2026-04-18 20:55 365K
20260418T18Z_MSC_RDPS_WindV_IsbL-0275_RLatLon0.09_PT055H.grib2 2026-04-18 20:55 374K
20260418T18Z_MSC_RDPS_WindV_IsbL-0300_RLatLon0.09_PT055H.grib2 2026-04-18 20:55 370K
20260418T18Z_MSC_RDPS_WindV_IsbL-0350_RLatLon0.09_PT055H.grib2 2026-04-18 20:55 376K
20260418T18Z_MSC_RDPS_WindV_IsbL-0400_RLatLon0.09_PT055H.grib2 2026-04-18 20:55 380K
20260418T18Z_MSC_RDPS_WindV_IsbL-0450_RLatLon0.09_PT055H.grib2 2026-04-18 20:55 360K
20260418T18Z_MSC_RDPS_WindV_IsbL-0500_RLatLon0.09_PT055H.grib2 2026-04-18 20:55 365K
20260418T18Z_MSC_RDPS_WindV_IsbL-0550_RLatLon0.09_PT055H.grib2 2026-04-18 20:55 472K
20260418T18Z_MSC_RDPS_WindV_IsbL-0600_RLatLon0.09_PT055H.grib2 2026-04-18 20:55 482K
20260418T18Z_MSC_RDPS_WindV_IsbL-0650_RLatLon0.09_PT055H.grib2 2026-04-18 20:55 501K
20260418T18Z_MSC_RDPS_WindV_IsbL-0700_RLatLon0.09_PT055H.grib2 2026-04-18 20:55 522K
20260418T18Z_MSC_RDPS_WindV_IsbL-0750_RLatLon0.09_PT055H.grib2 2026-04-18 20:55 548K
20260418T18Z_MSC_RDPS_WindV_IsbL-0800_RLatLon0.09_PT055H.grib2 2026-04-18 20:55 577K
20260418T18Z_MSC_RDPS_WindV_IsbL-0850_RLatLon0.09_PT055H.grib2 2026-04-18 20:55 620K
20260418T18Z_MSC_RDPS_WindV_IsbL-0875_RLatLon0.09_PT055H.grib2 2026-04-18 20:55 636K
20260418T18Z_MSC_RDPS_WindV_IsbL-0900_RLatLon0.09_PT055H.grib2 2026-04-18 20:55 647K
20260418T18Z_MSC_RDPS_WindV_IsbL-0925_RLatLon0.09_PT055H.grib2 2026-04-18 20:55 653K
20260418T18Z_MSC_RDPS_WindV_IsbL-0950_RLatLon0.09_PT055H.grib2 2026-04-18 20:55 648K
20260418T18Z_MSC_RDPS_WindV_IsbL-0970_RLatLon0.09_PT055H.grib2 2026-04-18 20:55 648K
20260418T18Z_MSC_RDPS_WindV_IsbL-0985_RLatLon0.09_PT055H.grib2 2026-04-18 20:55 649K
20260418T18Z_MSC_RDPS_WindV_IsbL-1000_RLatLon0.09_PT055H.grib2 2026-04-18 20:55 647K
20260418T18Z_MSC_RDPS_WindV_IsbL-1015_RLatLon0.09_PT055H.grib2 2026-04-18 20:55 779K